Hourly Data

Hourly Data Report for March 03, 2012

All times are specified in Local Standard Time (LST). Add 1 hour to adjust for Daylight Saving Time where and when it is observed.

Metadata including Station Name, Province, Latitude, Longitude, Elevation, Climate ID, WMO ID, TC ID
ST-JOVITE
QUEBEC
Latitude: 46°04'49.000" N Longitude: 74°33'21.000" W Elevation: 238.50 m
Climate ID: 703GDKB WMO ID: 71376 TC ID: WJT
Hourly Data Report for March 3, 2012
Temp Definition
°C

Dew Point Temp Definition
°C

Rel Hum Definition
%

Wind Dir Definition
10's deg
Wind Spd Definition
km/h

Visibility Definition
km

Stn Press Definition
kPa

Hmdx Definition

Wind Chill Definition

Weather Definition

TIME
00:00 -2.2 -3.8 89 10 9 97.62 -6 LegendNANA
01:00 -2.3 -3.9 89 10 7 97.45 -5 LegendNANA
02:00 -2.8 -4.0 91 9 11 97.12 -7 LegendNANA
03:00 -2.7 -4.1 90 12 7 96.96 -6 LegendNANA
04:00 -2.5 -3.7 91 10 11 96.73 -7 LegendNANA
05:00 -1.9 -3.3 90 11 11 96.57 -6 LegendNANA
06:00 -1.3 -2.3 93 11 13 96.41 -6 LegendNANA
07:00 -0.6 -1.5 94 12 15 96.22 -5 LegendNANA
08:00 0.2 -0.5 95 12 13 96.17 LegendNANA
09:00 1.3 0.7 96 19 11 96.26 LegendNANA
10:00 2.2 0.2 87 20 13 96.17 LegendNANA
11:00 2.8 -1.4 74 21 19 96.12 LegendNANA
12:00 2.9 -2.0 70 20 20 96.11 LegendNANA
13:00 2.3 -1.1 78 19 13 96.02 LegendNANA
14:00 2.3 -0.9 79 20 17 96.01 LegendNANA
15:00 3.2 -2.9 64 21 22 95.97 LegendNANA
16:00 1.7 -1.3 80 20 22 95.99 LegendNANA
17:00 0.7 -0.5 92 21 15 96.02 LegendNANA
18:00 0.4 -0.2 96 23 15 96.16 LegendNANA
19:00 0.4 -0.8 92 23 13 96.24 LegendNANA
20:00 0.0 -2.1 86 24 19 96.31 -5 LegendNANA
21:00 -0.4 -2.8 84 24 15 96.40 -5 LegendNANA
22:00 -1.5 -4.2 82 26 15 96.56 -6 LegendNANA
23:00 -2.5 -5.6 79 25 17 96.75 -8 LegendNANA

Notes on Data Quality.

Legend
  • M = Missing
  • E = Estimated
  • NA = Not Available
  • ‡ = Partner data that is not subject to review by the National Climate Archives